www.pogodaiklimat.ru

ПОГОДА в Маунт Плезант, MI

  • Прогноз погоды в Маунт Плезант
  • Монитор погоды в Маунт Плезант
  • Климат в Маунт Плезант

АРХИВ ПОГОДЫ в Маунт Плезант

Время (UTC), дата Ветер
(напр.,м/с)
 
Видим.   Явления Облачность Т
(С)
Тd
(С)
f
(%)
Тe
(С)
Тes
(С)
Комфортность

P
(гПа)

Po
(гПа)
Тmin
(С)
Tmax
(С)
R
(мм)
SD
(см)
22:15 21.05 В  16 км    ясно  +17.0  +1.6  35  +16  +18      993.0         
22:16 21.05 В  16 км    ясно  +17.0  +1.7  36  +16  +18      992.7         
22:35 21.05 В  16 км    ясно  +16.6  +1.8  37  +16  +17      993.0         
22:36 21.05 В  16 км    ясно  +16.6  +1.9  37  +16  +16      993.0         
22:55 21.05 В  16 км    ясно  +16.0  +0.9  36  +15  +17      992.7  +16.0  +18.1     
23:15 21.05 В  16 км    ясно  +15.6  +0.4  36  +15  +15      993.0         
23:35 21.05 В  16 км    ясно  +15.1  0.0  36  +14  +14      992.3         
23:36 21.05 В  16 км    ясно  +15.1  0.0  36  +14  +14      992.3         
23:55 21.05 В  16 км    ясно  +14.6  +0.1  37  +14  +14      992.7         
00:15 22.05 В  16 км    ясно  +14.0  +0.3  39  +13  +13      992.3         
00:16 22.05 В  16 км    ясно  +13.9  +0.3  39  +13  +13      992.3         
00:35 22.05 В  16 км    ясно  +13.3  +1.0  43  +12  +12      992.7         
00:55 22.05 В  16 км    ясно  +12.8  +1.7  47  +11  +11      992.7         
01:15 22.05 В  16 км    ясно  +12.5  +2.0  49  +11  +11      992.7         
01:16 22.05 В  16 км    ясно  +12.5  +2.0  49  +11  +11      992.7         
01:35 22.05 В  16 км    ясно  +11.9  +2.3  52  +10  +10      992.7         
01:55 22.05 СВ  16 км    ясно  +11.5  +2.5  54  +10  +10      992.7         
02:15 22.05 В  16 км    ясно  +11.1  +3.0  57  +9  +9      993.0         
02:16 22.05 В  16 км    ясно  +11.1  +3.0  57  +9  +9      993.0         
02:35 22.05 СВ  16 км    ясно  +11.0  +3.2  59  +8  +8      992.0         
02:55 22.05 В  16 км    ясно  +10.6  +3.7  62  +9  +9      992.7         
03:15 22.05 В  16 км    ясно  +9.9  +4.0  67  +8  +8      992.3         
03:16 22.05 В  16 км    ясно  +9.9  +4.0  67  +8  +8      992.3         
03:35 22.05 В  16 км    ясно  +9.7  +4.0  68  +8  +8      992.3         
03:36 22.05 В  16 км    ясно  +9.6  +4.0  68  +7  +7      992.3         
03:55 22.05 В  16 км    ясно  +9.6  +4.2  69  +8  +8      992.3         
04:15 22.05 В  16 км    ясно  +10.0  +3.9  66  +8  +8      992.3         
04:35 22.05 В  16 км    ясно  +10.1  +3.4  63  +8  +8      992.0         
04:36 22.05 В  16 км    ясно  +10.1  +3.3  63  +8  +8      992.0         
04:55 22.05 В  16 км    5/0 3600 м
[средняя] 
+10.1  +3.0  61  +7  +7      991.4  +9.6  +16.0     
05:15 22.05 В  16 км    5/0 3600 м
[средняя] 
+10.3  +2.7  59  +8  +8      990.7         
05:35 22.05 В  16 км    ясно  +10.4  +3.0  60  +8  +8      991.0         
05:36 22.05 В  16 км    ясно  +10.4  +3.0  60  +8  +8      991.0         
05:55 22.05 В  16 км    8/0 3300 м
[средняя] 
+10.5  +3.0  60  +9  +9      991.4         
05:56 22.05 В  16 км    8/0 3300 м
[средняя] 
+10.5  +3.0  60  +9  +9      991.4         
06:15 22.05 В  16 км    5/0 3300 м
[средняя] 
+10.5  +3.0  60  +8  +8      990.7         
06:16 22.05 В  16 км    5/0 3300 м
[средняя] 
+10.5  +3.0  60  +8  +8      990.7         
06:35 22.05 ЮВ  16 км    5/0 3600 м
[средняя] 
+10.7  +3.5  61  +9  +9      991.0         
06:55 22.05 В  16 км    8/0 2100 м
[средняя] 
+11.0  +4.0  62  +8  +8      990.4         
07:15 22.05 В  16 км    8/0 2100 м
[средняя] 
+11.2  +4.5  63  +9  +9      991.0         
07:16 22.05 В  16 км    8/0 2100 м
[средняя] 
+11.2  +4.4  63  +9  +9      991.0         
07:35 22.05 ЮВ  16 км    8/0 2100 м
[средняя] 
+11.5  +4.5  62  +11  +11      992.0         
07:55 22.05 В  16 км  дождь  10/5 1800 м
[средняя] 
+10.7  +5.4  70  +9  +9      991.0         
08:15 22.05 В  16 км    8/5 1800 м
[средняя] 
+9.8  +6.4  79  +7  +7      990.4         
08:16 22.05 В  16 км    8/5 1800 м
[средняя] 
+9.7  +6.5  80  +7  +7      990.4         
08:35 22.05 В  16 км  слабый дождь  8/5 1800 м
[средняя] 
+9.8  +6.6  80  +7  +7      990.4         
08:55 22.05 В  16 км  слабый дождь  10/8 1800 м
[средняя] 
+9.6  +7.0  84  +6  +6      989.7         
09:15 22.05 В  16 км  слабый дождь  10/8 1500 м
[средняя] 
+9.7  +7.2  84  +6  +6      989.7         

 

Местоположение метеостанции Mount Pleasant Municipal Airport: широта 43.6167 долгота -84.7333 высота над уровнем моря 230 м.

В архиве по умолчанию представлена погода в Маунт Плезант за последние 1-2 суток. Обновление информации о фактической погоде в базе происходит ежечасно! Архивные данные за месяц целиком и за предыдущие месяцы Вы можете получить, выбрав интересующий диапазон дат из раскрывающегося списка и нажав кнопку "Ввод!".

Внимание! Архив погоды МЕТАР в базе сайта хранится не более 60 дней. Нет смысла пытаться выбрать более раннюю дату.

Внимание! Время в таблицах - всемирное. Для получения местного времени необходимо прибавить поправку, которая в Маунт Плезант равна -5 ч.

Ветер - указаны скорость ветра в м/с и направление, откуда дует ветер: С - северный, СВ - северо-восточный, В - восточный, ЮВ - юго-восточный, Ю - южный, ЮЗ - юго-западный, З - западный, СЗ - северо-западный.
Видимость - горизонтальная дальность видимости в метрах или километрах. При видимости от 1 до 10 км при отсутствии осадков обычно наблюдается дымка, при ухудшении видимости до 1 км и менее - туман. В сухую погоду видимость может ухудшаться дымом, пылью или мглою.
Атмосферные явления - указаны явления, наблюдавшиеся в указанный момент времени.
Облачность - указаны через наклонную черту верхняя и нижняя облачность в баллах и высота нижней границы облаков в метрах. Внимание: облачность, как и прочие метеорологические величины в США измеряются автоматическими метеостанциями. Указанные значения в баллах носят условный характер и показывают процент времени, в течение которого, в среднем, лазерный луч высотомера отражался от облаков обратно.
T - Температура воздуха - температура, измеренная на высоте 2 м над землей.
Td - Температура точки росы - температура, при понижении до которой содержащийся в воздухе водяной пар достигнет насыщения.
f - Относительная влажность воздуха - влажноcть воздуха, измеренная на высоте 2 м над землей.
Te - Эффективная температура - температура, которую ощущает одетый по сезону человек в тени. Характеристика душности погоды. При расчете учитывается влияние влажности воздуха и скорости ветра на теплоощущения человека.
Tes - Эффективная температура на солнце - температура, которую ощущает человек, с поправкой на солнечный нагрев. Характеристика знойности погоды. Зависит от высоты солнца над горизонтом, облачности и скорости ветра. Ночью, в пасмурную погоду, а также при ветре 12 м/с и более поправка равна нулю.
P - Атмосферное давление - приведенное к уровню моря атмосферное давление.
Po - Атмосферное давление - измеренное на уровне метеостанции атмосферное давление.
Tmin - Минимальная температура - минимум температуры воздуха на высоте 2 м над землей.
Tmax - Максимальная температура - максимум температуры воздуха на высоте 2 м над землей.
R - Количество осадков - Количество выпавших осадков за 3 или 6 часов, мм.
SD - Снежный покров - Высота снежного покрова, см.